星链-36292(STARLINK-36292)

导读

STARLINK-36292(NORAD编号68509)是美国SpaceX公司星链(Starlink)星座中的一颗低轨互联网卫星,隶属于一代星链组网卫星。星链计划是全球规模最大的低轨卫星互联网项目,旨在为全球提供覆盖广、时延低的高速天基互联网接入服务,STARLINK-36292运行于近地轨道,为星链系统的全球覆盖提供支撑。 2026年SpaceX启动降轨计划,将包括该卫星在内的约4400颗星链卫星轨道高度从550公里降至480公里,以此降低太空碰撞风险,减少轨道碎片,提升近地轨道运行安全性。

基本信息
目录编号:
68509
目录名称:
STARLINK-36292
国际标识:
2026-068B
轨道中心:
EARTH
卫星名称:
星链-36292
卫星全名:
星链-36292(STARLINK-36292)
卫星状态:
在轨 (已飞行158 天)
发射日期:
2026-03-30 UTC
国别 :
美国 (US)
星等 :
--
轨道信息
数据来源 国际轨道数据
星历时间: 2026-09-04T04:06:16+0800
9小时前
查看轨道信息
半长轴: 6840.808km
偏心率: 0.0001109
轨道倾角: 53.160°
近地点辐角 83.435°
升交点赤经 17.281°
平近点角 276.678°
近地点: 461.912km
远地点: 463.43km
周期: 93.847分钟
每日圈数: 15.344111
详细信息
固有亮度:
5
最大亮度:
2.5
卫星平台:
Starlink V1.0
覆盖范围:
全球
运营商:
太空探索技术公司
运营商所在国:
美国
制造商(研发单位):
太空探索技术公司
制造商所在国:
美国
使用方式:
暂无
卫星简介
Starlink 计划是 SpaceX 推出的全球卫星互联网项目,通过发射低轨道卫星,为全球尤其是偏远地区提供高速、低延迟的互联网服务。自 2019 年起,Starlink 已部署数千颗卫星,旨在缩小全球数字鸿沟,推动互联网普及。该项目还为军事、航空等行业提供通信支持,带来广泛经济效益。
2D轨道图
3D轨道图
轨道高度分析图
轨道倾角分析图
轨道综合分析图
查看轨道综合分析图
交会数据列表
事件ID 空间交会对象 最接近时刻(TCA) 交会距离 交会风险概率(CRP) 交会风险指数(CRI) 操作
CDM_260904-190206-804606-850921
2026-09-04T
19:02:45+0000
0.609 km
远距离
8.267551E-5 中风险 0.73
CDM_260829-191306-026106-850921
2026-08-29T
19:13:56+0000
0.751 km
远距离
4.301407E-5 中风险 0.68
CDM_260904-124806-026106-850921
2026-09-04T
12:48:00+0000
0.763 km
远距离
4.089573E-5 中风险 0.67
CDM_260905-084505-943406-850921
2026-09-05T
08:45:25+0000
0.904 km
远距离
3.309643E-5 中风险 0.65
CDM_260905-220200-346206-850921
2026-09-05T
22:02:16+0000
1.303 km
极远距离
8.072066E-6 低风险 0.53
CDM_260904-225706-026106-850921
2026-09-04T
22:57:39+0000
1.274 km
极远距离
7.172802E-6 低风险 0.52
CDM_260905-112706-804606-850921
2026-09-05T
11:27:32+0000
1.453 km
极远距离
4.776755E-6 低风险 0.49
CDM_260904-172806-804606-850921
2026-09-04T
17:28:57+0000
1.501 km
极远距离
4.290586E-6 低风险 0.48
CDM_260904-071105-389306-850921
2026-09-04T
07:11:36+0000
2.183 km
极远距离
1.963147E-6 低风险 0.41
CDM_260904-203606-804606-850921
2026-09-04T
20:36:32+0000
2.187 km
极远距离
1.543704E-6 低风险 0.39